Location: *
(51.1248°S, 108.4023°W)
Time: 04:05:18
(UTC+00:00)

MOS 1 Rocket - Pass Details

Date: 15 June 2021
Orbit: 615 x 829 km, 97.4° (Epoch: 31 July)

Event Time Altitude Azimuth Distance (km) Brightness Sun altitude
Rises 12:26:12 0° 166° (SSE) 3,304 6.9 -25.3°
Reaches altitude 10° 12:28:38 10° 163° (SSE) 2,339 6.1 -25.0°
Maximum altitude 12:33:46 68° 79° (E) 801 3.7 -24.2°
Drops below altitude 10° 12:38:32 10° 356° (N) 2,171 5.9 -23.4°
Sets 12:40:43 0° 353° (N) 3,048 6.6 -23.1°
